Terminal Aerodrome Forecast
Issued by NWS

Home | Current Version | Previous Version | Text Only | Print | Product List | Glossary On
Versions: 1 2 3 4 5 6 7 8 9 10 11 12 13 14 15
000
FTUS43 KFGF 031041 AAB
TAFTVF
TAF AMD
KTVF 031041Z 0311/0406 VRB03KT 1/2SM FG BKN015
     FM031200 VRB05KT 4SM FU BKN050
      AMD LTD TO CLD VIS AND WIND=

USA.gov is the U.S. government's official web portal to all federal, state and local government web resources and services.